Time,TemperatureF,DewpointF,PressureIn,WindDirection,WindDirectionDegrees,WindSpeedMPH,WindSpeedGustMPH,Humidity,HourlyPrecipIn,Conditions,Clouds,dailyrainin,SoftwareType,DateUTC
2013-06-08 00:00:00,59.0,58.4,0.00,North,6,5.0,6.0,98,0.08,,,0.00,Weather View 32 v70,2013-06-08 04:00:00,
2013-06-08 00:15:00,58.6,58.1,0.00,NE,56,3.0,6.0,98,0.08,,,0.00,Weather View 32 v70,2013-06-08 04:15:00,
2013-06-08 00:30:00,58.5,57.6,0.00,NE,45,4.0,8.0,97,0.08,,,0.00,Weather View 32 v70,2013-06-08 04:30:00,
2013-06-08 00:45:00,58.3,57.4,0.00,NNE,14,3.0,8.0,97,0.04,,,0.00,Weather View 32 v70,2013-06-08 04:45:00,
2013-06-08 01:00:00,58.3,57.4,0.00,West,271,0.0,8.0,97,0.00,,,0.00,Weather View 32 v70,2013-06-08 05:00:00,
2013-06-08 01:15:00,58.1,57.2,0.00,North,4,3.0,8.0,97,0.00,,,0.00,Weather View 32 v70,2013-06-08 05:15:00,
2013-06-08 01:30:00,58.3,57.4,0.00,NNE,28,3.0,8.0,97,0.00,,,0.00,Weather View 32 v70,2013-06-08 05:30:00,
2013-06-08 01:45:00,58.5,57.6,0.00,NE,37,3.0,8.0,97,0.00,,,0.00,Weather View 32 v70,2013-06-08 05:45:00,
2013-06-08 02:00:00,58.5,57.6,0.00,ENE,59,4.0,8.0,97,0.00,,,0.00,Weather View 32 v70,2013-06-08 06:00:00,
2013-06-08 02:15:00,58.1,57.2,0.00,North,0,5.0,7.0,97,0.00,,,0.00,Weather View 32 v70,2013-06-08 06:15:00,
2013-06-08 02:30:00,57.9,56.8,0.00,NNW,332,4.0,8.0,96,0.00,,,0.00,Weather View 32 v70,2013-06-08 06:30:00,
2013-06-08 02:45:00,57.7,56.3,0.00,NE,56,0.0,8.0,95,0.00,,,0.00,Weather View 32 v70,2013-06-08 06:45:00,
2013-06-08 03:00:00,57.7,56.3,0.00,NNE,25,0.0,8.0,95,0.00,,,0.00,Weather View 32 v70,2013-06-08 07:00:00,
2013-06-08 03:15:00,57.2,55.5,0.00,North,353,3.0,8.0,94,0.00,,,0.00,Weather View 32 v70,2013-06-08 07:15:00,
2013-06-08 03:30:00,57.2,55.8,0.00,North,10,5.0,8.0,95,0.00,,,0.00,Weather View 32 v70,2013-06-08 07:30:00,
2013-06-08 03:45:00,57.0,55.6,0.00,NNW,336,4.0,8.0,95,0.04,,,0.04,Weather View 32 v70,2013-06-08 07:45:00,
2013-06-08 04:00:00,57.0,55.6,0.00,North,357,3.0,8.0,95,0.04,,,0.04,Weather View 32 v70,2013-06-08 08:00:00,
2013-06-08 04:15:00,56.8,55.7,0.00,North,7,2.0,8.0,96,0.04,,,0.04,Weather View 32 v70,2013-06-08 08:15:00,
2013-06-08 04:30:00,56.8,55.4,0.00,North,353,0.0,11.0,95,0.04,,,0.04,Weather View 32 v70,2013-06-08 08:30:00,
2013-06-08 04:45:00,56.8,55.7,0.00,NNW,341,3.0,11.0,96,0.00,,,0.04,Weather View 32 v70,2013-06-08 08:45:00,
2013-06-08 05:00:00,57.0,55.9,0.00,North,353,0.0,11.0,96,0.00,,,0.04,Weather View 32 v70,2013-06-08 09:00:00,
2013-06-08 05:15:00,57.0,55.9,0.00,NNE,23,3.0,11.0,96,0.00,,,0.04,Weather View 32 v70,2013-06-08 09:15:00,
2013-06-08 05:30:00,57.0,55.9,0.00,NNE,27,0.0,5.0,96,0.00,,,0.04,Weather View 32 v70,2013-06-08 09:30:00,
2013-06-08 05:45:00,57.0,55.9,0.00,ENE,61,3.0,5.0,96,0.00,,,0.04,Weather View 32 v70,2013-06-08 09:45:00,
2013-06-08 06:00:00,57.2,55.8,0.00,ENE,64,0.0,6.0,95,0.00,,,0.04,Weather View 32 v70,2013-06-08 10:00:00,
2013-06-08 06:15:00,57.2,55.8,0.00,WNW,293,0.0,6.0,95,0.00,,,0.04,Weather View 32 v70,2013-06-08 10:15:00,
2013-06-08 06:30:00,57.7,56.3,0.00,NNW,341,0.0,6.0,95,0.00,,,0.04,Weather View 32 v70,2013-06-08 10:30:00,
2013-06-08 06:45:00,58.1,56.4,0.00,West,260,0.0,6.0,94,0.00,,,0.04,Weather View 32 v70,2013-06-08 10:45:00,
2013-06-08 07:00:00,58.6,56.9,0.00,West,260,0.0,4.0,94,0.00,,,0.04,Weather View 32 v70,2013-06-08 11:00:00,
2013-06-08 07:15:00,59.0,56.4,0.00,West,261,0.0,3.0,91,0.00,,,0.04,Weather View 32 v70,2013-06-08 11:15:00,
2013-06-08 07:30:00,59.7,57.1,0.00,West,261,0.0,3.0,91,0.00,,,0.04,Weather View 32 v70,2013-06-08 11:30:00,
2013-06-08 07:45:00,60.3,57.6,0.00,West,261,0.0,0.0,91,0.00,,,0.04,Weather View 32 v70,2013-06-08 11:45:00,
2013-06-08 08:00:00,60.6,58.0,0.00,WNW,296,0.0,3.0,91,0.00,,,0.04,Weather View 32 v70,2013-06-08 12:00:00,
2013-06-08 08:15:00,61.3,58.7,0.00,WSW,250,2.0,6.0,91,0.00,,,0.04,Weather View 32 v70,2013-06-08 12:15:00,
2013-06-08 08:30:00,62.6,57.3,0.00,NNW,331,4.0,8.0,83,0.00,,,0.04,Weather View 32 v70,2013-06-08 12:30:00,
2013-06-08 08:45:00,63.3,56.0,0.00,WNW,288,3.0,8.0,77,0.00,,,0.04,Weather View 32 v70,2013-06-08 12:45:00,
2013-06-08 09:00:00,64.4,56.6,0.00,NW,317,0.0,8.0,76,0.00,,,0.04,Weather View 32 v70,2013-06-08 13:00:00,
2013-06-08 09:15:00,65.5,56.2,0.00,WSW,256,2.0,8.0,72,0.00,,,0.04,Weather View 32 v70,2013-06-08 13:15:00,
2013-06-08 09:30:00,66.7,55.8,0.00,West,276,0.0,8.0,68,0.00,,,0.04,Weather View 32 v70,2013-06-08 13:30:00,
2013-06-08 09:45:00,68.2,54.6,0.00,WNW,298,0.0,8.0,62,0.00,,,0.04,Weather View 32 v70,2013-06-08 13:45:00,
2013-06-08 10:00:00,68.9,56.2,0.00,West,273,8.0,8.0,64,0.00,,,0.04,Weather View 32 v70,2013-06-08 14:00:00,
2013-06-08 10:15:00,70.2,53.7,0.00,NW,316,4.0,8.0,56,0.00,,,0.04,Weather View 32 v70,2013-06-08 14:15:00,
2013-06-08 10:30:00,70.3,55.8,0.00,North,353,3.0,8.0,60,0.00,,,0.04,Weather View 32 v70,2013-06-08 14:30:00,
2013-06-08 10:45:00,71.2,53.2,0.00,North,7,2.0,10.0,53,0.00,,,0.04,Weather View 32 v70,2013-06-08 14:45:00,
2013-06-08 11:00:00,72.1,54.0,0.00,North,10,4.0,10.0,53,0.00,,,0.04,Weather View 32 v70,2013-06-08 15:00:00,
2013-06-08 11:15:00,71.4,51.8,0.00,NW,310,3.0,10.0,50,0.00,,,0.04,Weather View 32 v70,2013-06-08 15:15:00,
2013-06-08 11:30:00,72.5,51.6,0.00,NNW,342,3.0,10.0,48,0.00,,,0.04,Weather View 32 v70,2013-06-08 15:30:00,
2013-06-08 11:45:00,73.2,52.3,0.00,WNW,283,4.0,9.0,48,0.00,,,0.04,Weather View 32 v70,2013-06-08 15:45:00,
2013-06-08 12:00:00,73.0,52.1,0.00,NW,315,5.0,8.0,48,0.00,,,0.04,Weather View 32 v70,2013-06-08 16:00:00,
2013-06-08 12:15:00,72.9,51.4,0.00,WNW,296,4.0,8.0,47,0.00,,,0.04,Weather View 32 v70,2013-06-08 16:15:00,
2013-06-08 12:30:00,73.4,51.3,0.00,WSW,240,4.0,10.0,46,0.00,,,0.04,Weather View 32 v70,2013-06-08 16:30:00,
2013-06-08 12:50:00,74.7,51.2,0.00,North,357,3.0,10.0,44,0.00,,,0.04,Weather View 32 v70,2013-06-08 16:50:00,
2013-06-08 13:00:00,73.4,50.7,0.00,NNW,328,4.0,10.0,45,0.00,,,0.04,Weather View 32 v70,2013-06-08 17:00:00,
2013-06-08 13:15:00,73.9,51.8,0.00,West,264,3.0,10.0,46,0.00,,,0.04,Weather View 32 v70,2013-06-08 17:15:00,
2013-06-08 13:30:00,74.1,51.4,0.00,West,272,2.0,9.0,45,0.00,,,0.04,Weather View 32 v70,2013-06-08 17:30:00,
2013-06-08 13:45:00,74.5,52.9,0.00,SE,139,0.0,9.0,47,0.00,,,0.04,Weather View 32 v70,2013-06-08 17:45:00,
2013-06-08 13:51:00,74.5,52.9,0.00,SE,139,0.0,9.0,47,0.00,,,0.04,Weather View 32 v70,2013-06-08 17:51:00,
2013-06-08 14:00:00,74.5,53.4,0.00,WNW,287,0.0,7.0,48,0.00,,,0.04,Weather View 32 v70,2013-06-08 18:00:00,
2013-06-08 14:15:00,73.9,54.1,0.00,West,259,3.0,7.0,50,0.00,,,0.04,Weather View 32 v70,2013-06-08 18:15:00,
2013-06-08 14:30:00,73.8,52.8,0.00,SSW,202,2.0,6.0,48,0.00,,,0.04,Weather View 32 v70,2013-06-08 18:30:00,
2013-06-08 14:45:00,73.9,52.4,0.00,West,275,4.0,6.0,47,0.00,,,0.04,Weather View 32 v70,2013-06-08 18:45:00,
2013-06-08 14:51:00,73.9,52.4,0.00,West,275,4.0,6.0,47,0.00,,,0.04,Weather View 32 v70,2013-06-08 18:51:00,
2013-06-08 15:00:00,73.2,52.9,0.00,West,278,0.0,6.0,49,0.00,,,0.04,Weather View 32 v70,2013-06-08 19:00:00,
2013-06-08 15:15:00,73.2,54.0,0.00,West,281,3.0,6.0,51,0.00,,,0.04,Weather View 32 v70,2013-06-08 19:15:00,
2013-06-08 15:30:00,72.7,51.8,0.00,WNW,294,4.0,6.0,48,0.00,,,0.04,Weather View 32 v70,2013-06-08 19:30:00,
2013-06-08 15:45:00,73.2,54.0,0.00,WSW,244,3.0,6.0,51,0.00,,,0.04,Weather View 32 v70,2013-06-08 19:45:00,
2013-06-08 15:52:00,73.2,54.0,0.00,WSW,244,3.0,6.0,51,0.00,,,0.04,Weather View 32 v70,2013-06-08 19:52:00,
2013-06-08 16:00:00,73.0,53.2,0.00,WNW,285,4.0,6.0,50,0.00,,,0.04,Weather View 32 v70,2013-06-08 20:00:00,
2013-06-08 16:15:00,73.8,52.8,0.00,NNW,327,2.0,6.0,48,0.00,,,0.04,Weather View 32 v70,2013-06-08 20:15:00,
2013-06-08 16:30:00,73.9,52.4,0.00,WSW,249,5.0,8.0,47,0.00,,,0.04,Weather View 32 v70,2013-06-08 20:30:00,
2013-06-08 16:45:00,73.6,52.6,0.00,WNW,284,4.0,8.0,48,0.00,,,0.04,Weather View 32 v70,2013-06-08 20:45:00,
2013-06-08 16:52:00,73.6,52.6,0.00,WNW,284,4.0,8.0,48,0.00,,,0.04,Weather View 32 v70,2013-06-08 20:52:00,
2013-06-08 17:00:00,73.9,54.1,0.00,WNW,293,4.0,8.0,50,0.00,,,0.04,Weather View 32 v70,2013-06-08 21:00:00,
2013-06-08 17:15:00,74.1,52.5,0.00,WNW,297,8.0,8.0,47,0.00,,,0.04,Weather View 32 v70,2013-06-08 21:15:00,
2013-06-08 17:30:00,75.2,53.5,0.00,North,1,3.0,8.0,47,0.00,,,0.04,Weather View 32 v70,2013-06-08 21:30:00,
2013-06-08 17:45:00,75.7,50.9,0.00,WNW,302,0.0,8.0,42,0.00,,,0.04,Weather View 32 v70,2013-06-08 21:45:00,
2013-06-08 17:53:00,75.7,50.9,0.00,WNW,302,0.0,8.0,42,0.00,,,0.04,Weather View 32 v70,2013-06-08 21:53:00,
2013-06-08 18:00:00,75.0,52.2,0.00,North,4,3.0,8.0,45,0.00,,,0.04,Weather View 32 v70,2013-06-08 22:00:00,
2013-06-08 18:15:00,75.9,53.6,0.00,North,9,3.0,8.0,46,0.00,,,0.04,Weather View 32 v70,2013-06-08 22:15:00,
2013-06-08 18:30:00,75.4,52.5,0.00,NE,52,2.0,7.0,45,0.00,,,0.04,Weather View 32 v70,2013-06-08 22:30:00,
2013-06-08 18:45:00,73.9,53.0,0.00,North,11,0.0,7.0,48,0.00,,,0.04,Weather View 32 v70,2013-06-08 22:45:00,
2013-06-08 18:53:00,73.9,53.0,0.00,North,11,0.0,7.0,48,0.00,,,0.04,Weather View 32 v70,2013-06-08 22:53:00,
2013-06-08 19:00:00,73.4,54.1,0.00,North,11,3.0,7.0,51,0.00,,,0.04,Weather View 32 v70,2013-06-08 23:00:00,
2013-06-08 19:15:00,73.0,52.7,0.00,NNW,331,3.0,5.0,49,0.00,,,0.04,Weather View 32 v70,2013-06-08 23:15:00,
2013-06-08 19:29:00,72.5,52.7,0.00,NNW,346,0.0,5.0,50,0.00,,,0.04,Weather View 32 v70,2013-06-08 23:29:00,
2013-06-08 19:45:00,72.0,52.3,0.00,NNW,346,0.0,5.0,50,0.00,,,0.04,Weather View 32 v70,2013-06-08 23:45:00,
2013-06-08 19:54:00,72.0,52.3,0.00,NNW,346,0.0,5.0,50,0.00,,,0.04,Weather View 32 v70,2013-06-08 23:54:00,
2013-06-08 20:00:00,71.4,53.3,0.00,NNW,346,0.0,5.0,53,0.00,,,0.04,Weather View 32 v70,2013-06-09 00:00:00,
2013-06-08 20:15:00,70.2,55.1,0.00,NNW,346,0.0,3.0,59,0.00,,,0.04,Weather View 32 v70,2013-06-09 00:15:00,
2013-06-08 20:30:00,69.3,55.2,0.00,NNW,346,0.0,0.0,61,0.00,,,0.04,Weather View 32 v70,2013-06-09 00:30:00,
2013-06-08 20:45:00,68.7,55.6,0.00,NNW,346,0.0,0.0,63,0.00,,,0.04,Weather View 32 v70,2013-06-09 00:45:00,
2013-06-08 20:54:00,68.7,55.6,0.00,NNW,346,0.0,0.0,63,0.00,,,0.04,Weather View 32 v70,2013-06-09 00:54:00,
2013-06-08 21:00:00,68.2,55.9,0.00,NNW,346,0.0,0.0,65,0.00,,,0.04,Weather View 32 v70,2013-06-09 01:00:00,
2013-06-08 21:15:00,67.6,56.3,0.00,NNW,346,0.0,0.0,67,0.00,,,0.04,Weather View 32 v70,2013-06-09 01:15:00,
2013-06-08 21:30:00,67.1,56.6,0.00,NNW,346,0.0,0.0,69,0.00,,,0.04,Weather View 32 v70,2013-06-09 01:30:00,
2013-06-08 21:45:00,66.7,56.2,0.00,NNW,346,0.0,0.0,69,0.00,,,0.04,Weather View 32 v70,2013-06-09 01:45:00,
2013-06-08 22:00:00,66.4,56.3,0.00,NNW,346,0.0,0.0,70,0.00,,,0.04,Weather View 32 v70,2013-06-09 02:00:00,
2013-06-08 22:15:00,65.7,56.4,0.00,NNW,346,0.0,0.0,72,0.00,,,0.04,Weather View 32 v70,2013-06-09 02:15:00,
2013-06-08 22:30:00,65.7,57.1,0.00,NNW,346,0.0,0.0,74,0.00,,,0.04,Weather View 32 v70,2013-06-09 02:30:00,
2013-06-08 22:45:00,65.5,57.3,0.00,NNW,346,0.0,0.0,75,0.00,,,0.04,Weather View 32 v70,2013-06-09 02:45:00,
2013-06-08 23:00:00,65.1,57.7,0.00,NNW,346,0.0,0.0,77,0.00,,,0.04,Weather View 32 v70,2013-06-09 03:00:00,
2013-06-08 23:15:00,64.9,57.9,0.00,NNW,346,0.0,0.0,78,0.00,,,0.04,Weather View 32 v70,2013-06-09 03:15:00,
2013-06-08 23:30:00,64.6,58.3,0.00,NNW,346,0.0,0.0,80,0.00,,,0.04,Weather View 32 v70,2013-06-09 03:30:00,
2013-06-08 23:45:00,64.4,58.1,0.00,NNW,346,0.0,0.0,80,0.00,,,0.04,Weather View 32 v70,2013-06-09 03:45:00,